Station Historical Data
 
Daily Summary for September 19, 2017 Units:  English    Metric   Both
« Previous Day
Next Day »
Daily Weekly Monthly Yearly Custom
  Current: High: Low: Average:
Temperature: 81.0 °F 81.0 °F 65.0 °F 69.7 °F
Dew Point: 66.3 °F 66.3 °F 62.0 °F 63.9 °F
Humidity: 61% 91% 60% 82%
Wind Speed: 2.0mph 5.0mph 0.0mph 0.6mph
Wind Gust: 5.0mph 8.0mph - -
WindWSW - - SSW
Pressure: 30.00 in 30.02 in 29.99 in -
Precipitation: 0.00 in      
Historical Graphs
 
 
Tabular Data for September 19, 2017
Time Temperature Dew Point Pressure Wind Wind Speed Wind Gust Humidity Rainfall Rate (Hourly)
00:04 68.7 °F 65.0 °F 30.02 in Calm     88% 0.00 in
00:09 68.8 °F 65.1 °F 30.02 in Calm     88% 0.00 in
00:14 68.9 °F 64.9 °F 30.02 in Calm     87% 0.00 in
00:19 68.8 °F 64.8 °F 30.02 in Calm     87% 0.00 in
00:24 68.7 °F 64.7 °F 30.02 in Calm     87% 0.00 in
00:29 68.7 °F 64.7 °F 30.02 in Calm     87% 0.00 in
00:34 68.7 °F 64.7 °F 30.02 in Calm     87% 0.00 in
00:39 68.6 °F 64.6 °F 30.02 in Calm     87% 0.00 in
00:44 68.5 °F 64.5 °F 30.02 in Calm     87% 0.00 in
00:49 68.5 °F 64.5 °F 30.01 in Calm     87% 0.00 in
00:54 68.5 °F 64.5 °F 30.01 in Calm     87% 0.00 in
00:59 68.4 °F 64.4 °F 30.01 in Calm     87% 0.00 in
01:04 68.4 °F 64.4 °F 30.01 in Calm     87% 0.00 in
01:09 68.4 °F 64.4 °F 30.01 in Calm     87% 0.00 in
01:14 68.4 °F 64.4 °F 30.02 in Calm     87% 0.00 in
01:19 68.3 °F 64.3 °F 30.01 in Calm     87% 0.00 in
01:24 68.2 °F 64.2 °F 30.01 in Calm     87% 0.00 in
01:29 68.3 °F 64.3 °F 30.01 in Calm     87% 0.00 in
01:34 68.2 °F 64.2 °F 30.01 in Calm     87% 0.00 in
01:39 68.2 °F 64.2 °F 30.01 in Calm     87% 0.00 in
01:44 68.2 °F 64.2 °F 30.01 in Calm     87% 0.00 in
01:49 68.1 °F 64.1 °F 30.01 in Calm     87% 0.00 in
01:54 68.1 °F 64.1 °F 30.01 in Calm     87% 0.00 in
01:59 68.0 °F 64.0 °F 30.01 in Calm     87% 0.00 in
02:04 68.0 °F 64.0 °F 30.00 in Calm     87% 0.00 in
02:09 67.7 °F 63.7 °F 30.00 in Calm     87% 0.00 in
02:14 67.7 °F 63.7 °F 30.00 in Calm     87% 0.00 in
02:19 67.6 °F 63.6 °F 30.00 in Calm     87% 0.00 in
02:24 67.7 °F 63.7 °F 30.00 in Calm     87% 0.00 in
02:29 67.7 °F 63.7 °F 30.00 in Calm     87% 0.00 in
02:34 67.7 °F 63.7 °F 30.00 in Calm     87% 0.00 in
02:39 67.7 °F 63.7 °F 30.00 in Calm     87% 0.00 in
02:44 67.7 °F 63.7 °F 29.99 in Calm     87% 0.00 in
02:49 67.7 °F 63.7 °F 29.99 in Calm     87% 0.00 in
02:54 67.6 °F 63.6 °F 29.99 in Calm     87% 0.00 in
02:59 67.6 °F 63.6 °F 29.99 in Calm     87% 0.00 in
03:04 67.5 °F 63.5 °F 29.99 in Calm     87% 0.00 in
03:09 67.4 °F 63.4 °F 29.99 in Calm     87% 0.00 in
03:14 67.3 °F 63.3 °F 30.00 in Calm     87% 0.00 in
03:19 67.2 °F 63.2 °F 29.99 in Calm     87% 0.00 in
03:24 67.0 °F 63.0 °F 30.00 in Calm     87% 0.00 in
03:29 66.9 °F 62.9 °F 30.00 in Calm     87% 0.00 in
03:34 66.7 °F 62.7 °F 30.00 in Calm     87% 0.00 in
03:39 66.6 °F 62.6 °F 30.00 in Calm     87% 0.00 in
03:44 66.7 °F 63.0 °F 30.00 in Calm     88% 0.00 in
03:49 66.7 °F 63.0 °F 30.00 in Calm     88% 0.00 in
03:54 66.7 °F 63.0 °F 29.99 in Calm     88% 0.00 in
03:59 66.6 °F 62.9 °F 30.00 in Calm     88% 0.00 in
04:04 66.6 °F 62.9 °F 29.99 in Calm     88% 0.00 in
04:09 66.6 °F 62.9 °F 30.00 in Calm     88% 0.00 in
04:14 66.6 °F 62.9 °F 30.00 in Calm     88% 0.00 in
04:19 66.5 °F 62.8 °F 30.00 in Calm     88% 0.00 in
04:24 66.5 °F 62.8 °F 30.00 in Calm     88% 0.00 in
04:29 66.5 °F 62.8 °F 30.00 in Calm     88% 0.00 in
04:34 66.4 °F 62.7 °F 30.00 in Calm     88% 0.00 in
04:39 66.3 °F 62.6 °F 30.00 in Calm     88% 0.00 in
04:44 66.3 °F 62.6 °F 30.00 in Calm     88% 0.00 in
04:49 66.1 °F 62.4 °F 30.00 in Calm     88% 0.00 in
04:54 65.9 °F 62.2 °F 30.00 in Calm     88% 0.00 in
04:59 65.7 °F 62.4 °F 30.00 in Calm     89% 0.00 in
05:04 65.6 °F 62.3 °F 30.00 in Calm     89% 0.00 in
05:09 65.6 °F 62.3 °F 30.00 in Calm     89% 0.00 in
05:14 65.4 °F 62.1 °F 30.00 in Calm     89% 0.00 in
05:19 65.6 °F 62.6 °F 30.00 in Calm     90% 0.00 in
05:24 65.6 °F 62.6 °F 30.00 in Calm     90% 0.00 in
05:29 65.5 °F 62.5 °F 30.00 in Calm     90% 0.00 in
05:34 65.5 °F 62.5 °F 30.00 in Calm     90% 0.00 in
05:39 65.4 °F 62.4 °F 30.00 in Calm     90% 0.00 in
05:44 65.3 °F 62.3 °F 30.00 in Calm     90% 0.00 in
05:49 65.3 °F 62.3 °F 30.00 in Calm     90% 0.00 in
05:54 65.3 °F 62.3 °F 30.00 in Calm     90% 0.00 in
05:59 65.4 °F 62.4 °F 30.00 in Calm     90% 0.00 in
06:04 65.3 °F 62.3 °F 30.00 in Calm     90% 0.00 in
06:09 65.2 °F 62.2 °F 30.00 in Calm     90% 0.00 in
06:14 65.2 °F 62.2 °F 30.00 in Calm     90% 0.00 in
06:19 65.3 °F 62.3 °F 30.00 in Calm     90% 0.00 in
06:24 65.2 °F 62.2 °F 30.00 in Calm     90% 0.00 in
06:29 65.3 °F 62.3 °F 30.00 in Calm     90% 0.00 in
06:34 65.3 °F 62.3 °F 30.00 in Calm     90% 0.00 in
06:39 65.3 °F 62.3 °F 30.00 in Calm     90% 0.00 in
06:44 65.2 °F 62.2 °F 30.01 in Calm     90% 0.00 in
06:49 65.2 °F 62.2 °F 30.01 in Calm     90% 0.00 in
06:54 65.1 °F 62.1 °F 30.01 in Calm     90% 0.00 in
06:59 65.0 °F 62.0 °F 30.00 in Calm     90% 0.00 in
07:04 65.1 °F 62.1 °F 30.01 in Calm     90% 0.00 in
07:09 65.1 °F 62.4 °F 30.01 in Calm     91% 0.00 in
07:14 65.2 °F 62.5 °F 30.01 in Calm     91% 0.00 in
07:19 65.4 °F 62.7 °F 30.02 in East 1.0 mph 5.0 mph 91% 0.00 in
07:24 65.5 °F 62.8 °F 30.02 in Calm   5.0 mph 91% 0.00 in
07:29 65.7 °F 62.7 °F 30.02 in Calm   4.0 mph 90% 0.00 in
07:34 65.8 °F 62.8 °F 30.02 in Calm   4.0 mph 90% 0.00 in
07:39 65.9 °F 62.9 °F 30.02 in SE 2.0 mph 4.0 mph 90% 0.00 in
07:44 66.2 °F 63.2 °F 30.02 in SE 1.0 mph 4.0 mph 90% 0.00 in
07:49 66.5 °F 63.2 °F 30.02 in Calm   2.0 mph 89% 0.00 in
07:54 66.8 °F 63.5 °F 30.02 in SE 2.0 mph 3.0 mph 89% 0.00 in
07:59 67.1 °F 63.4 °F 30.02 in SE 1.0 mph 3.0 mph 88% 0.00 in
08:04 67.4 °F 63.7 °F 30.02 in SSE 1.0 mph 3.0 mph 88% 0.00 in
08:09 67.7 °F 63.7 °F 30.02 in Calm   1.0 mph 87% 0.00 in
08:14 68.1 °F 64.1 °F 30.02 in Calm     87% 0.00 in
08:19 68.4 °F 64.0 °F 30.02 in Calm     86% 0.00 in
08:24 68.8 °F 64.1 °F 30.02 in Calm     85% 0.00 in
08:29 69.3 °F 64.3 °F 30.01 in Calm     84% 0.00 in
08:34 69.7 °F 64.6 °F 30.01 in Calm     84% 0.00 in
08:39 70.3 °F 64.9 °F 30.01 in Calm   3.0 mph 83% 0.00 in
08:44 70.6 °F 64.8 °F 30.01 in Calm   3.0 mph 82% 0.00 in
08:49 70.6 °F 64.5 °F 30.02 in SSE 1.0 mph 3.0 mph 81% 0.00 in
08:54 70.8 °F 64.7 °F 30.02 in Calm   4.0 mph 81% 0.00 in
08:59 71.0 °F 64.9 °F 30.02 in South 1.0 mph 4.0 mph 81% 0.00 in
09:04 71.2 °F 65.1 °F 30.02 in South 1.0 mph 4.0 mph 81% 0.00 in
09:09 71.3 °F 64.8 °F 30.01 in Calm   1.0 mph 80% 0.00 in
09:14 71.3 °F 64.4 °F 30.02 in SSW 2.0 mph 6.0 mph 79% 0.00 in
09:19 71.4 °F 64.5 °F 30.02 in SSE 1.0 mph 4.0 mph 79% 0.00 in
09:24 71.6 °F 64.7 °F 30.02 in South 3.0 mph 4.0 mph 79% 0.00 in
09:29 71.9 °F 64.7 °F 30.02 in South 2.0 mph 6.0 mph 78% 0.00 in
09:34 72.1 °F 64.5 °F 30.02 in South 2.0 mph 6.0 mph 77% 0.00 in
09:39 72.3 °F 64.7 °F 30.02 in SSW 3.0 mph 7.0 mph 77% 0.00 in
09:44 72.9 °F 65.3 °F 30.02 in SSW 2.0 mph 7.0 mph 77% 0.00 in
09:49 73.1 °F 65.1 °F 30.02 in SSW 2.0 mph 6.0 mph 76% 0.00 in
09:54 73.2 °F 64.8 °F 30.02 in SSE 4.0 mph 5.0 mph 75% 0.00 in
09:59 73.5 °F 65.1 °F 30.02 in SSE 2.0 mph 7.0 mph 75% 0.00 in
10:04 73.8 °F 64.6 °F 30.02 in South 2.0 mph 7.0 mph 73% 0.00 in
10:09 74.0 °F 65.6 °F 30.02 in SSW 2.0 mph 5.0 mph 75% 0.00 in
10:14 74.5 °F 65.3 °F 30.02 in South 3.0 mph 5.0 mph 73% 0.00 in
10:19 75.4 °F 65.7 °F 30.02 in South 2.0 mph 5.0 mph 72% 0.00 in
10:24 75.9 °F 66.2 °F 30.02 in SSW 1.0 mph 5.0 mph 72% 0.00 in
10:29 76.0 °F 64.7 °F 30.02 in SSW 1.0 mph 4.0 mph 68% 0.00 in
10:34 76.3 °F 65.4 °F 30.02 in SSW 2.0 mph 5.0 mph 69% 0.00 in
10:39 76.1 °F 64.8 °F 30.02 in SSW 2.0 mph 5.0 mph 68% 0.00 in
10:44 76.1 °F 64.8 °F 30.02 in SSW 3.0 mph 7.0 mph 68% 0.00 in
10:49 76.7 °F 64.9 °F 30.02 in SW 3.0 mph 7.0 mph 67% 0.00 in
10:54 76.6 °F 64.0 °F 30.02 in SW 3.0 mph 7.0 mph 65% 0.00 in
10:59 76.8 °F 65.0 °F 30.02 in SSE 2.0 mph 6.0 mph 67% 0.00 in
11:04 76.7 °F 65.3 °F 30.02 in WSW 1.0 mph 4.0 mph 68% 0.00 in
11:09 76.5 °F 64.3 °F 30.02 in Calm   4.0 mph 66% 0.00 in
11:14 76.7 °F 64.9 °F 30.02 in South 2.0 mph 3.0 mph 67% 0.00 in
11:19 76.7 °F 64.5 °F 30.02 in South 2.0 mph 4.0 mph 66% 0.00 in
11:24 77.1 °F 65.3 °F 30.01 in SW 3.0 mph 3.0 mph 67% 0.00 in
11:29 77.3 °F 64.6 °F 30.02 in SW 2.0 mph 4.0 mph 65% 0.00 in
11:34 76.7 °F 64.5 °F 30.01 in SW 2.0 mph 5.0 mph 66% 0.00 in
11:39 77.2 °F 65.0 °F 30.01 in WSW 1.0 mph 5.0 mph 66% 0.00 in
11:44 77.3 °F 64.6 °F 30.01 in WSW 1.0 mph 4.0 mph 65% 0.00 in
11:49 77.3 °F 65.1 °F 30.01 in Calm     66% 0.00 in
11:54 77.7 °F 65.9 °F 30.01 in WSW 1.0 mph 2.0 mph 67% 0.00 in
11:59 77.8 °F 65.1 °F 30.01 in Calm   3.0 mph 65% 0.00 in
12:04 78.4 °F 65.7 °F 30.01 in WSW 1.0 mph 3.0 mph 65% 0.00 in
12:09 79.0 °F 66.2 °F 30.01 in Calm   3.0 mph 65% 0.00 in
12:14 79.6 °F 65.4 °F 30.01 in WNW 1.0 mph 4.0 mph 62% 0.00 in
12:19 79.5 °F 64.9 °F 30.01 in WNW 2.0 mph 5.0 mph 61% 0.00 in
12:24 79.6 °F 65.9 °F 30.01 in SSW 5.0 mph 6.0 mph 63% 0.00 in
12:34 79.7 °F 66.0 °F 30.00 in West 2.0 mph 6.0 mph 63% 0.00 in
12:39 79.8 °F 64.7 °F 30.00 in NW 3.0 mph 4.0 mph 60% 0.00 in
12:44 80.0 °F 65.8 °F 30.00 in West 5.0 mph 8.0 mph 62% 0.00 in
12:49 79.8 °F 65.2 °F 30.00 in West 2.0 mph 6.0 mph 61% 0.00 in
12:54 81.0 °F 66.3 °F 30.00 in WSW 2.0 mph 5.0 mph 61% 0.00 in
Buffalo, New York, USA
Compliments of Weather Underground - 1.75 mb